SCP
0 0 0 0 0 0 0 0 0 0 0 0 0 0 0 0 0 0 0 0 0 0 0 0 0 0 0 0 0 0 0 0 0 0 0 0 0 0 0 0 0 0 0
0 0 0 0 0 0 0 0 0 0 0 0 0 0 0 0 0 0 0 0 0 0 0 0 0 0 0 0 0 0 0 0 0 0 0 0 0 0 0 0 0 0 0
0 0 0 0 0 0 0 0 0 0 0 0 0 0 0 0 0 0 0 0 0 0 0 0 0 0 0 0 0 0 0 0 0 0 0 0 0 0 0 0 0 0 0
0 0 0 0 0 0 0 0 0 0 0 0 0 0 0 0 0 0 0 0 0 0 0 0 0 0 0 0 0 0 0 0 0 0 0 0 0 0 0 0 0 0 0
0 0 0 0 0 0 0 0 0 0 0 0 0 0 0 0 0 0 0 0 0 0 0 0 0 0 0 0 0 0 0 0 0 0 0 0 0 0 0 0 0 0 0
0 0 0 0 0 0 0 0 0 0 0 0 0 0 0 0 0 0 0 0 0 0 0 0 0 0 0 0 0 0 0 0 0 0 0 0 0 0 0 0 0 0 0
0 0 0 0 0 0 0 0 0 0 0 0 0 0 0 0 0 0 0 0 0 0 0 0 0 0 0 0 0 0 0 0 0 0 0 0 0 0 0 0 0 0 0
0 0 0 0 0 0 0 0 0 0 0 0 0 0 0 0 0 0 0 0 0 0 0 0 0 0 0 0 0 0 0 0 0 0 0 0 0 0 0 0 0 0 0
0 0 0 0 0 0 0 0 0 0 0 0 0 0 0 0 0 0 0 0 0 0 0 0 0 0 0 0 0 0 0 0 0 0 0 0 0 0 0 0 0 0 0
0 0 0 0 0 0 0 0 0 0 0 0 0 0 0 0 0 0 0 0 0 0 0 0 0 0 0 0 0 0 0 0 0 0 0 0 0 0 0 0 0 0 0
0 0 0 0 0 0 0 0 0 0 0 0 0 0 0 0 0 0 0 0 0 0 0 0 0 0 0 0 0 0 0 0 0 0 0 0 0 0 0 0 0 0 0
0 0 0 0 0 0 0 0 0 0 0 0 0 0 0 0 0 0 0 0 0 0 0 0 0 0 0 0 0 0 0 0 0 0 0 0 0 0 0 0 0 0 0
1 1 0 0 0 0 0 0 0 0 0 0 0 0 0 0 0 0 0 0 0 0 0 0 0 0 0 0 0 0 0 0 0 0 0 0 0 0 0 0 0 0 0
0 0 0 0 0 0 0 0 0 0 0 0 0 0 0 0 0 0 0 0 0 0 0 0 0 0 0 0 0 0 0 0 0 0 0 0 0 0 0 0 0 0 0
0 0 0 0 0 0 0 0 0 0 0 0 0 0 0 0 0 0 0 0 0 0 0 0 0 0 0 0 0 0 0 0 0 0 0 0 0 0 0 0 0 0 0
0 0 0 0 0 0 0 0 0 0 0 0 0 0 0 0 0 0 0 0 0 0 0 0 0 0 0 0 0 0 0 0 0 0 0 0 0 0 0 0 0 0 0
0 0 0 0 0 0 0 0 0 0 0 0 0 0 0 0 0 0 0 0 0 0 0 0 0 0 0 0 0 0 0 0 0 0 0 0 0 0 0 0 0 0 0
0 0 0 0 0 0 0 0 0 0 0 0 0 0 0 0 0 0 0 0 0 0 0 0 0 0 0 0 0 0 0 0 0 0 0 0 0 0 0 0 0 0 0
0 0 0 0 0 0 0 0 0 0 0 0 0 0 0 0 0 0 0 0 0 0 0 0 0 0 0 0 0 0 0 0 0 0 0 0 0 0 0 0 0 0 0
0 0 0 0 0 0 0 0 0 0 0 0 0 0 0 0 0 0 0 0 0 0 0 0 0 0 0 0 0 0 0 0 0 0 0 0 0 0 0 0 0 0 0
0 0 0 0 0 0 0 0 0 0 0 0 0 0 0 0 0 0 0 0 0 0 0 0 0 0 0 0 0 0 0 0 0 0 0 0 0 0 0 0 0 0 0
0 0 0 0 0 0 0 0 0 0 0 0 0 0 0 0 0 0 0 0 0 0 0 0 0 0 0 0 0 0 0 0 0 0 0 0 0 0 0 0 0 0 0
0 0 0 0 0 0 0 0 0 0 0 0 0 0 0 0 0 0 0 0 0 0 0 0 0 0 0 0 0 0 0 0 0 0 0 0 0 0 0 0 0 0 0
0 0 0 0 0 0 0 0 0 0 0 0 0 0 0 0 0 0 0 0 0 0 0 0 0 0 0 0 0 0 0 0 0 0 0 0 0 0 0 0 0 0 0
0 0 0 0 0 0 0 0 0 0 0 0 0 0 0 0 0 0 0 0 0 0 0 0 0 0 0 0 0 0 0 0 0 0 0 0 0 0 0 0 0 0 0
0 0 0 0 0 0 0 0 0 0 0 0 0 0 0 0 0 0 0 0 0 0 0 0 0 0 0 0 0 0 0 0 0 0 0 0 0 0 0 0 0 0 0
Wind_Speed
3 2 1 1 1 1 1 1 1 1 1 1 2 3 3 3 4 3 2 8 9 9 9 9 8 8 8 8 8 8 8 8 8 7 7 7 6 6 6 6 7 7 7
3 2 2 1 1 1 1 1 1 1 0 1 1 2 3 3 4 4 3 5 9 9 9 9 8 8 8 8 7 7 8 8 8 8 7 8 7 7 7 6 6 6 6
3 3 2 1 1 1 1 1 1 1 1 1 1 1 2 3 3 4 4 3 4 8 9 9 8 8 8 8 8 8 8 9 9 9 8 8 8 8 8 7 7 7 7
4 3 2 1 1 1 1 1 1 1 1 1 0 0 1 2 3 3 3 3 3 3 6 9 9 8 8 8 8 8 8 8 8 9 8 8 8 8 8 8 8 8 8
4 3 2 1 2 2 1 1 1 1 1 0 0 0 0 1 2 3 3 4 4 3 3 6 9 9 9 8 8 8 8 8 8 8 8 8 8 8 9 9 9 8 8
3 3 2 2 2 2 1 1 1 1 1 1 0 1 1 1 1 1 3 3 3 4 4 4 4 6 9 9 8 8 9 9 8 9 9 9 8 8 8 8 9 9 8
3 3 2 2 2 2 1 1 1 1 0 1 2 2 2 2 0 1 1 1 2 3 3 3 3 3 3 8 8 8 9 8 8 8 9 9 9 8 8 9 9 9 9
3 4 3 2 2 2 2 1 1 1 0 1 2 1 2 3 2 1 1 1 2 1 2 4 3 3 3 3 5 9 9 9 9 9 9 8 8 9 8 9 10 10 10
3 3 4 3 2 2 2 1 1 2 1 1 1 3 2 2 2 2 1 1 1 1 2 3 4 3 4 3 3 7 9 9 10 10 9 8 8 9 9 9 10 10 11
3 3 3 3 3 2 2 2 2 2 2 1 1 1 2 3 2 1 2 2 2 2 3 2 3 3 3 3 4 6 8 8 9 9 9 9 8 9 9 9 10 11 11
3 3 3 3 3 2 2 2 1 1 1 2 1 1 1 0 1 2 2 2 2 2 2 3 2 2 3 3 3 5 7 7 7 8 8 8 8 9 9 9 9 10 10
1 2 3 3 3 2 2 2 2 1 1 2 1 1 2 2 2 2 2 2 2 2 2 2 2 2 3 3 5 7 8 8 8 7 7 7 8 8 8 9 9 9 9
2 3 2 2 3 3 2 2 2 1 2 1 1 1 2 2 2 2 2 2 2 2 1 1 2 2 3 2 4 7 7 8 8 8 7 7 7 7 8 8 8 8 8
3 3 3 3 3 3 3 2 1 2 1 1 1 1 1 2 2 2 2 2 1 2 1 2 1 1 2 2 3 5 4 7 7 8 8 7 7 7 8 7 7 7 7
3 3 3 3 3 3 3 2 1 2 1 1 1 1 1 1 1 1 2 2 3 1 2 2 1 2 2 2 2 2 2 5 7 7 8 8 8 7 8 7 7 7 7
3 3 3 3 3 3 3 3 2 1 1 1 1 1 1 1 0 1 1 1 2 3 2 2 2 2 2 1 2 2 3 5 6 7 7 7 7 7 7 6 6 6 6
4 4 4 3 3 3 3 3 2 2 2 1 1 1 1 1 1 0 1 1 1 2 2 2 1 1 1 1 1 1 1 2 3 6 7 7 7 7 7 7 7 6 6
4 4 4 4 4 3 3 3 3 2 2 2 1 1 2 1 1 1 1 1 1 2 2 2 2 1 2 2 1 1 1 1 2 4 6 6 7 7 7 7 7 6 6
3 3 3 4 3 3 3 3 3 3 3 3 2 2 2 1 1 1 1 1 1 1 1 2 2 1 1 1 0 1 1 1 2 2 4 5 5 6 6 7 7 7 7
4 4 4 4 3 3 3 3 3 3 2 2 2 2 2 2 3 2 2 2 1 1 1 1 1 1 1 1 0 0 1 1 2 2 1 2 3 4 5 6 7 7 8
4 4 4 3 3 3 3 3 3 3 3 2 2 2 2 2 3 3 2 2 2 2 1 1 1 1 1 0 1 1 1 1 2 1 1 1 1 2 3 4 6 7 8
3 3 3 4 3 2 3 4 3 3 3 3 3 3 2 2 2 2 2 3 4 4 3 2 2 2 3 2 2 1 1 0 2 1 0 2 1 2 3 3 6 7 8
3 3 3 3 3 3 4 4 4 3 3 4 4 3 2 2 2 1 1 1 2 4 5 4 4 4 4 3 3 2 2 2 3 2 1 2 1 2 3 3 5 7 7
3 3 3 3 3 3 5 4 4 3 3 3 4 4 4 3 2 2 1 1 2 2 3 3 4 5 4 4 4 4 3 2 2 2 2 1 2 2 3 2 5 6 6
2 2 2 3 3 3 5 5 4 2 2 2 2 3 3 3 4 4 2 1 2 3 3 3 4 5 5 6 4 2 2 1 1 2 1 2 1 1 2 3 3 5 5
2 2 2 3 4 4 6 6 5 2 2 2 1 1 3 4 4 4 3 3 3 3 2 1 2 2 3 4 4 4 4 3 2 2 2 2 1 0 2 2 2 2 3
Wind_Direction
159 160 166 174 182 178 187 201 218 203 215 187 176 162 159 163 166 171 176 175 170 168 169 169 173 174 176 176 179 181 183 187 188 184 184 187 189 184 180 181 183 184 187
152 152 155 160 171 187 190 179 173 164 174 131 144 161 161 159 165 166 167 173 175 175 177 176 178 180 182 184 184 183 188 190 190 189 188 190 193 193 191 188 186 185 188
158 148 147 160 175 167 144 126 104 82 74 90 105 149 157 163 166 169 171 172 183 189 188 187 187 187 191 194 193 191 192 196 195 193 191 193 198 198 196 193 191 189 190
157 143 148 159 157 131 112 116 96 78 46 63 67 136 158 167 177 177 173 177 182 192 201 201 198 195 198 202 200 199 199 201 200 198 200 203 204 203 201 199 199 198 197
155 140 141 143 130 115 109 126 104 126 119 103 239 285 167 189 187 180 181 189 191 191 194 203 204 202 204 208 207 207 209 210 206 201 205 209 207 207 207 205 204 202 200
146 139 130 125 121 107 91 82 97 94 129 165 119 359 312 270 208 178 188 189 193 197 198 204 203 210 211 212 212 213 216 216 213 212 214 214 210 209 204 203 202 198 197
151 146 140 133 126 123 135 125 111 83 37 90 76 15 349 338 340 243 206 174 187 196 186 198 202 206 215 218 218 216 220 219 219 220 220 216 210 206 205 204 204 203 202
160 159 153 152 152 135 108 106 101 102 1 107 131 96 5 349 338 291 233 205 216 202 195 204 202 205 214 210 215 215 216 219 220 221 223 219 213 209 210 211 210 209 207
164 156 159 158 160 150 152 164 145 141 168 322 141 145 152 224 299 317 286 236 223 212 224 210 202 209 215 216 220 222 217 217 218 219 219 217 213 213 216 216 215 214 211
172 168 165 161 163 158 159 182 162 165 159 230 285 200 180 169 170 299 317 289 254 237 234 226 209 207 210 214 217 216 215 214 218 220 219 218 215 216 217 222 223 220 219
177 172 168 166 169 168 171 174 160 159 174 189 202 206 186 168 171 172 262 291 304 268 230 213 201 205 206 206 214 220 217 212 216 221 223 224 223 222 223 226 225 223 223
187 178 173 177 179 172 175 182 175 178 204 200 198 180 172 175 195 179 217 248 265 274 256 229 214 216 213 209 221 216 211 211 214 219 220 223 230 233 233 231 227 224 224
191 204 187 182 181 181 176 174 174 199 218 209 199 201 198 206 188 179 187 227 248 276 292 275 240 232 228 218 233 222 216 213 212 216 221 222 230 236 236 233 229 227 225
197 194 184 181 182 178 175 173 178 210 212 213 219 210 215 223 189 179 182 181 244 305 306 278 286 245 235 221 234 225 222 220 218 219 221 220 225 231 233 228 224 226 225
190 185 182 177 179 176 174 168 182 212 209 218 223 216 221 230 199 201 190 175 177 225 272 269 280 281 258 226 234 220 230 229 224 222 222 221 222 226 227 226 223 224 225
183 175 185 185 185 183 178 169 182 201 195 234 221 210 250 247 236 206 201 200 187 191 233 252 244 255 264 263 239 225 233 233 231 225 226 224 220 218 221 224 224 226 226
183 180 181 182 186 188 184 171 193 191 193 230 248 220 258 252 229 244 200 198 199 184 215 268 264 268 258 272 285 266 237 221 233 230 229 225 221 220 221 225 227 227 225
190 186 177 175 185 186 181 184 199 197 184 197 226 236 263 252 225 217 205 225 220 199 187 236 276 281 261 240 239 259 267 243 234 237 228 224 224 224 222 225 227 226 223
188 182 170 172 177 174 178 192 193 199 196 201 206 216 247 224 224 227 217 218 229 221 184 194 246 264 275 264 270 292 299 294 274 256 230 224 224 226 227 227 225 223 223
182 177 177 178 178 176 178 190 193 194 195 202 207 216 227 210 217 217 214 214 205 192 179 186 232 271 279 282 142 263 315 316 299 300 289 239 225 230 233 235 228 224 224
183 173 173 179 183 181 191 186 188 183 189 205 224 232 228 206 211 209 209 201 187 186 189 198 227 258 277 291 246 233 245 299 307 288 309 277 247 242 244 245 238 231 228
169 162 185 184 192 207 196 186 178 184 190 199 220 239 240 231 231 216 208 202 189 189 198 203 219 215 233 223 218 208 184 95 294 277 171 275 229 247 248 239 240 237 232
173 174 187 186 198 209 194 190 186 184 198 207 212 217 230 227 206 195 210 250 245 227 208 195 201 215 215 212 193 203 204 200 233 243 160 275 268 261 262 254 243 242 240
188 191 198 199 201 216 197 197 193 191 206 216 213 205 201 214 208 184 184 229 268 262 238 211 205 219 218 208 194 196 201 210 270 269 168 224 264 263 276 270 251 246 241
198 202 198 198 204 218 204 197 179 176 201 222 219 205 192 199 211 183 162 208 274 287 280 234 223 229 231 225 201 165 169 154 256 276 216 179 239 279 283 271 263 251 249
203 200 208 212 206 211 206 196 177 174 192 221 237 223 208 200 206 193 183 197 234 253 260 291 291 282 254 243 218 191 184 181 195 253 240 171 216 196 296 279 271 260 253